Regional Weather Roundup
Issued by NWS

Home | Current Version | Previous Version | Graphics & Text | Print | Product List | Glossary Off
Versions: 1 2 3 4 5 6 7 8 9 10 11 12 13 14 15 16 17 18 19 20 21 22 23 24 25 26 27 28 29 30 31 32 33 34 35 36 37 38 39 40 41 42 43 44 45 46 47 48 49 50

000
ASUS43 KMKX 271911
RWRWI

WISCONSIN REGIONAL WEATHER ROUNDUP
NATIONAL WEATHER SERVICE MILWAUKEE/SULLIVAN WI
200 PM CDT THU APR 27 2017

NOTE: "FAIR" INDICATES FEW OR NO CLOUDS BELOW 12,000 FEET WITH NO
SIGNIFICANT WEATHER AND/OR OBSTRUCTIONS TO VISIBILITY.

WIZ001-002-006>008-014>016-023>028-272000-
NORTHWEST WISCONSIN

CITY           SKY/WX    TMP DP  RH WIND       PRES   REMARKS
SUPERIOR ARPT  CLOUDY    30  22  72 CALM      29.55R
ASHLAND        CLOUDY    28  22  78 W14G20    29.52R WCI  17
HAYWARD        CLOUDY    28  22  78 VRB7      29.52R WCI  21
SIREN          CLOUDY    29  23  78 NW10G17   29.56R WCI  20
CUMBERLAND     CLOUDY    30  23  74 NW10      29.54R WCI  21
RICE LAKE      CLOUDY    30  26  84 W9        29.56R WCI  22
CHETEK         CLOUDY    31  26  84 W7G17     29.55R WCI  24
LADYSMITH      CLOUDY    32  27  82 W13       29.52R WCI  22
EAU CLAIRE     CLOUDY    34  27  75 W13       29.55R WCI  25
MENOMONIE      CLOUDY    34  27  74 W14       29.56R WCI  25
NEW RICHMOND   CLOUDY    32  24  72 W10       29.57R WCI  24
OSCEOLA        CLOUDY    33  26  76 W14G20    29.60R WCI  23
$$

WIZ003>005-009-010-017-018-272000-
NORTH CENTRAL WISCONSIN

CITY           SKY/WX    TMP DP  RH WIND       PRES   REMARKS
MANITOWISH WTR LGT SNOW  26  26  99 W8        29.44R VSB 3/4 WCI  17
ARBOR VITAE    LGT SNOW  29  26  88 NW7G17    29.44R WCI  22
WOODRUFF       LGT SNOW  29  26  88 NW7G17    29.44R WCI  22
RHINELANDER    SNOW      30  27  88 W12       29.44R VSB 1/2 WCI  20
EAGLE RIVER    LGT SNOW  28  26  91 NW9G17    29.42R VSB 1   WCI  19
LAND O LAKES   LGT SNOW  28  26  89 W5        29.42R VSB 3/4 WCI  23
PHILLIPS       LGT SNOW  28  26  89 W3        29.47R
TOMAHAWK       LGT SNOW  30  26  83 W10G16    29.47R WCI  21
MEDFORD        CLOUDY    30  27  86 W7        29.49R WCI  23
MERRILL        LGT SNOW  31  30  94 W7        29.48R WCI  24
$$

WIZ029-030-035-036-043>047-272000-
CENTRAL WISCONSIN

CITY           SKY/WX    TMP DP  RH WIND       PRES   REMARKS
WAUSAU         LGT SNOW  31  29  92 W12       29.48R FOG     WCI  22
MOSINEE        FLURRIES  32  32 100 W15       29.50R WCI  22
MARSHFIELD     CLOUDY    33  30  88 W10       29.50R WCI  25
STEVENS POINT  DRIZZLE   32  31  98 W8        29.51R WCI  25
WAUPACA        CLOUDY    38  34  85 W17G24    29.52R WCI  29
WAUTOMA        LGT RAIN  37  34  89 W14         N/A  WCI  28
WISC RAPIDS    LGT SNOW  36  34  92 NW10      29.54R FOG     WCI  28
CAMP DOUGLAS   CLOUDY    37  34  87 W9        29.55R WCI  31
$$

WIZ011>013-019>022-031-037>040-048>050-272000-
NORTHEAST WISCONSIN

CITY           SKY/WX    TMP DP  RH WIND       PRES   REMARKS
ANTIGO         LGT SNOW  30  29  96 W12       29.46R WCI  21
SHAWANO        RAIN      36  33  89 W10G17    29.48R WCI  29
OCONTO         CLOUDY    40  37  89 W15G21    29.44R WCI  31
STURGEON BAY   CLOUDY    41  38  89 SW17      29.42R
GREEN BAY      LGT RAIN  39  37  92 W20G25    29.47R WCI  29
MANITOWOC      CLOUDY    40  34  79 W20G29    29.49R WCI  30
APPLETON       LGT SNOW  36  34  93 W17G23    29.48R WCI  25
CLINTONVILLE   LGT SNOW  34  32  93 W16G22    29.49R WCI  23
OSHKOSH        MIX PCPN  38  34  85 W13G20    29.51R WCI  30
$$

WIZ032>034-041-042-053>061-272000-
SOUTHWEST WISCONSIN

CITY           SKY/WX    TMP DP  RH WIND       PRES   REMARKS
LA CROSSE      CLOUDY    43  36  76 W16G24    29.56R
SPARTA         CLOUDY    39  34  82 W7        29.55R WCI  34
VIROQUA        CLOUDY    39  36  89 W13       29.55R WCI  31
BOSCOBEL       CLOUDY    43  34  70 SW14G21   29.59R
PRAIRIE DU CHI CLOUDY    41  31  68 W16G22    29.61R
PLATTEVILLE    CLOUDY    41  37  84 W22G28    29.60R
$$

WIZ056-057-062-063-064-067-068-272000-
SOUTH CENTRAL WISCONSIN

CITY           SKY/WX    TMP DP  RH WIND       PRES   REMARKS
REEDSBURG      CLOUDY    40  34  79 W12G18    29.55R WCI  33
BARABOO/DELLS  CLOUDY    39  34  80 W10       29.55R WCI  33
LONE ROCK      CLOUDY    44  37  76 W13       29.57R
MINERAL POINT  CLOUDY    41  37  87 W18G29    29.57R
MADISON        CLOUDY    40  35  83 W8G16     29.56R WCI  34
MIDDLETON      CLOUDY    43  38  80 W9        29.57R
WATERTOWN      CLOUDY    40  35  83 W15G23    29.57R WCI  31
MONROE         CLOUDY    41  34  75 SW21G26   29.59R
JANESVILLE     CLOUDY    43  39  87 W14       29.59R
$$

WIZ051-052-058>065-066-070>072-272000-
SOUTHEAST WISCONSIN

CITY           SKY/WX    TMP DP  RH WIND       PRES   REMARKS
MILWAUKEE      CLOUDY    44  35  70 W16G26    29.58R
WAUKESHA       CLOUDY    39  34  81 W14G23    29.58R WCI  31
MILWAUKEE/TIMM CLOUDY    41  32  70 SW18G25   29.57R
RACINE         CLOUDY    44  35  70 SW16G24   29.60R
KENOSHA        CLOUDY    43  37  79 W20G26    29.59R
FOND DU LAC    LGT RAIN  38  31  76 W20G29    29.53R WCI  28
SHEBOYGAN      LGT RAIN  41  36  82 W21G29    29.52R
WEST BEND      CLOUDY    37  34  87 W16G25    29.55R WCI  28
JUNEAU         CLOUDY    38  33  82 W18       29.57R WCI  28
$$

LSZ147-162-272000-
LAKE SUPERIOR

STATION/POSITION TIME  TEMP    WIND        PRES    WAVE
                       AIR SEA DIR/SP/G            HT/PER
                 (UTC) (F)     (DEG/KT/KT) (MB)    (FT/S)
DEVILS ISLAND    1900   27     310/ 14/ 16 1000.0R
PORT WING        1840   29     270/ 14/ 16 1000.3R
SAXON HARBOR     1840   28     280/  9/ 15  999.3R
$$

LMZ867-665-643>646-272000-
LAKE MICHIGAN

STATION/POSITION TIME  TEMP    WIND        PRES    WAVE
                       AIR SEA DIR/SP/G            HT/PER
                 (UTC) (F)     (DEG/KT/KT) (MB)    (FT/S)
CHAMBERS ISLAND  1840   40     210/  7/ 12  995.3R
N MID LAKE BUOY  1850   38 37  230/ 17/ 21  996.0R   3/ 4
NORTHPORT PIER   1840   40     250/  4/ 11  995.6R
KEWAUNEE LAKESHO 1848   41     260/ 17/ 23  997.0R
SHEBOYGAN LAKESH 1900   40     240/ 20/ 25 1000.0R
PORT WASHINGTON  1840   42     250/ 12/ 18 1001.7R
MILWAUKEE LAKESH 1850   42     240/ 18/ 23   N/A
S MID LAKE BUOY  1850   43 41  270/ 16/ 19 1002.2R   5/ 5
KENOSHA   LAKESH 1900   44     240/ 14/ 20 1002.7
$$

TC  - TEMPERATURE IN CELSIUS
VSB - VISIBILITY IN STATUTE MILES
WCI - WIND CHILL INDEX
HX  - HEAT INDEX





USA.gov is the U.S. government's official web portal to all federal, state and local government web resources and services.